Location: Pedholt
(56.0260°N, 10.2097°E)
Time: 00:32:49
(UTC+00:00)

Meteor 1-20 Rocket - Pass Details

Date: 14 July 2020
Orbit: 820 x 891 km, 81.2° (Epoch: 06 August)

Event Time Altitude Azimuth Distance (km) Brightness Sun altitude
Exits shadow 00:58:22 12° 208° (SSW) 2,292 5.8 -9.9°
Maximum altitude 01:03:27 63° 289° (WNW) 954 4.5 -9.6°
Drops below altitude 10° 01:09:10 10° 11° (N) 2,529 8.2 -9.3°
Sets 01:11:40 0° 15° (NNE) 3,481 9.4 -9.1°
